Flag for U.S.A. Weather past 2 weeks in Chesapeake, Virginia, U.S.A.

Now
70 °F

Clear.


Feels Like: 70 °F
Forecast: 39 / 67 °F
Wind: 16 mph from South

Location: Chesapeake Municipal Airport

Current Time: Dec 24, 2014 at 9:58:29 PM

Latest Report: Dec 24, 2014 at 9:15 PM


Visibility: 10 mi

Pressure: 29.69 "Hg

Humidity: 83%

Dew point: 64 °F

Location of ChesapeakeLocation

Historic Weather in Chesapeake — Graph

°F

Chesapeake temperature yesterday

Maximum temperature yesterday: 54 °F (at 3:55 PM)
Minimum temperature yesterday: 43 °F (at 2:55 AM)
Average temperature yesterday: 47 °F

Past Weeks' High & Low Weather Summary

 TemperatureHumidityPressure
High72 °F (Dec 24, 10:15 AM)100% (Dec 9, 8:15 PM)30.36 "Hg (Dec 9, 8:15 PM)
Low27 °F (Dec 13, 4:35 AM)28% (Dec 12, 1:35 PM)29.71 "Hg (Dec 24, 3:15 PM)
Average44 °F79%30.06 "Hg
* Reported Dec 9 8:15 PM — Dec 24 8:15 PM, Chesapeake, Weather by CustomWeather, © 2014

Note: Actual official high and low records may vary slightly from our data, if they occured in-between our weather recording intervals... More about our weather records

Advertising

Chesapeake weather history for previous 24 hours

 ConditionsComfort  
Time TempWeatherWind HumidityBarometerVisibility
8:15 PM
Dec 24
70 °FPassing clouds.12 mph100%29.71 "Hg10 mi
7:55 PM70 °FPassing clouds.14 mph94%29.72 "Hg10 mi
7:35 PM70 °FOvercast.12 mph94%29.71 "Hg10 mi
7:15 PM70 °FMostly cloudy.10 mph100%29.71 "Hg10 mi
6:59 PM70 °FPassing clouds.13 mph100%29.72 "Hg10 mi
6:55 PM70 °FPartly cloudy.12 mph100%29.72 "Hg10 mi
6:35 PM70 °FPartly cloudy.10 mph100%29.72 "Hg10 mi
6:15 PM70 °FOvercast.10 mph100%29.72 "Hg10 mi
5:55 PM68 °FOvercast.9 mph100%29.72 "Hg10 mi
5:35 PM66 °FOvercast.5 mph100%29.72 "Hg10 mi
5:15 PM66 °FPartly cloudy.No wind100%29.72 "Hg10 mi
4:55 PM66 °FPartly cloudy.3 mph100%29.72 "Hg10 mi
4:35 PM68 °FCloudy.6 mph94%29.73 "Hg10 mi
4:15 PM68 °FHeavy rain. Cloudy.8 mph94%29.73 "Hg5 mi
3:55 PM70 °FMostly cloudy.14 mph100%29.71 "Hg10 mi
3:35 PM70 °FCloudy.15 mph100%29.71 "Hg10 mi
3:15 PM70 °FMore clouds than sun.14 mph100%29.71 "Hg10 mi
2:55 PM70 °FLight rain. Mostly cloudy.15 mph100%29.72 "Hg10 mi
2:35 PM70 °FLight rain. Overcast.16 mph100%29.73 "Hg10 mi
2:15 PM70 °FHeavy rain. Mostly cloudy.15 mph100%29.74 "Hg4 mi
1:55 PM70 °FHeavy rain. Cloudy.18 mph100%29.74 "Hg5 mi
1:35 PM70 °FHeavy rain. Mostly cloudy.18 mph100%29.73 "Hg4 mi
1:15 PM70 °FHeavy rain. Mostly cloudy.22 mph100%29.73 "Hg5 mi
12:55 PM70 °FRain. Overcast.17 mph100%29.74 "Hg7 mi
12:35 PM70 °FHeavy rain. Overcast.20 mph100%29.75 "Hg2 mi
12:15 PM72 °FRain. Cloudy.16 mph94%29.77 "Hg7 mi
11:55 AM72 °FHeavy rain. Cloudy.15 mph94%29.79 "Hg3 mi
11:35 AM72 °FRain. Mostly cloudy.13 mph94%29.80 "Hg7 mi
11:15 AM72 °FLight rain. Mostly cloudy.15 mph94%29.81 "Hg10 mi
10:55 AM72 °FLight rain. Overcast.12 mph94%29.83 "Hg7 mi
10:15 AM72 °FLight rain. Mostly cloudy.13 mph94%29.85 "Hg10 mi
9:55 AM70 °FLow clouds.9 mph100%29.87 "Hg10 mi
9:15 AM68 °FLow clouds.9 mph94%29.87 "Hg10 mi
8:55 AM66 °FLow clouds.9 mph100%29.87 "Hg10 mi
8:35 AM66 °FPartly sunny.7 mph94%29.86 "Hg10 mi
8:15 AM64 °FCloudy.6 mph100%29.87 "Hg10 mi
7:55 AM64 °FScattered clouds.5 mph100%29.88 "Hg10 mi
7:35 AM64 °FScattered clouds.5 mph94%29.88 "Hg10 mi
7:15 AM63 °FScattered clouds.3 mph100%29.88 "Hg10 mi
6:55 AM63 °FFog.5 mph100%29.86 "Hg2 mi
6:15 AM61 °FFog.3 mph100%29.86 "Hg1 mi
5:55 AM61 °FFog.3 mph100%29.86 "Hg1 mi
5:35 AM61 °FFog.5 mph100%29.87 "Hg1 mi
5:15 AM61 °FFog.5 mph100%29.88 "Hg1 mi
4:55 AM61 °FLight rain. Low clouds.No wind100%29.89 "Hg1 mi
4:15 AM61 °FFog.7 mph94%29.92 "Hg1 mi
3:55 AM59 °FDrizzle. Low clouds.5 mph100%29.93 "Hg3 mi
3:15 AM57 °FFog.5 mph100%29.95 "Hg2 mi
2:55 AM57 °FDrizzle. Low clouds.5 mph94%29.96 "Hg7 mi
2:15 AM55 °FLight rain. Low clouds.3 mph100%29.97 "Hg10 mi
1:55 AM55 °FLight rain. Mostly cloudy.No wind100%29.98 "Hg10 mi
1:35 AM55 °FLight rain. Mostly cloudy.6 mph94%29.98 "Hg10 mi
1:15 AM54 °FRain. Low clouds.7 mph100%29.98 "Hg10 mi
12:55 AM52 °FRain. Mostly cloudy.9 mph100%29.99 "Hg10 mi
12:35 AM52 °FHeavy rain. Mostly cloudy.3 mph100%30.00 "Hg5 mi
12:15 AM52 °FRain. Mostly cloudy.5 mph100%30.01 "Hg5 mi
11:55 PM
Dec 23
52 °FThundershowers. Low clouds.No wind100%30.03 "Hg2 mi
11:35 PM52 °FLight rain. Low clouds.No wind100%30.03 "Hg1 mi
11:15 PM52 °FLight rain. Low clouds.No wind94%30.02 "Hg1 mi
10:55 PM52 °FFog.5 mph94%30.02 "Hg1 mi
10:35 PM52 °FFog.3 mph94%30.03 "Hg1 mi
10:15 PM52 °FFog.3 mph94%30.04 "Hg1 mi
9:55 PM52 °FFog.No wind94%30.06 "Hg1 mi
9:35 PM52 °FFog.3 mph94%30.06 "Hg1 mi
9:15 PM52 °FFog.No wind94%30.04 "Hg1 mi
Weather by CustomWeather, © 2014

See weather overviewHow to use our weather pages